| time (UTC) | temp F | wind direction | speed knots | gust knots | rain 1hr in | rain 24hr in | rain mn in | humidity % | barometer mb |
| 20260506080706 | 55 | 356 | 6.1 | 12.2 | 0.00 | 0.00 | 0.00 | 47 | 1008.3 |
| 20260506073205 | 54 | 21 | 4.3 | 7.0 | 0.00 | 0.00 | 0.00 | 51 | 1008.3 |
| 20260506071706 | 54 | 28 | 5.2 | 7.0 | 0.00 | 0.00 | 0.00 | 51 | 1008.3 |
| 20260506071205 | 53 | 21 | 4.3 | 7.0 | 0.00 | 0.00 | 0.00 | 51 | 1008.3 |
| 20260506070205 | 53 | 13 | 5.2 | 7.0 | 0.00 | 0.00 | 0.00 | 52 | 1008.4 |
| 20260506062206 | 50 | 30 | 5.2 | 7.0 | 0.00 | 0.00 | 0.00 | 55 | 1008.4 |
| 20260506061706 | 50 | 40 | 4.3 | 7.0 | 0.00 | 0.00 | 0.00 | 55 | 1008.5 |
| 20260506050205 | 43 | 17 | 2.6 | 4.3 | 0.00 | 0.00 | 0.00 | 62 | 1008.7 |
| 20260506044205 | 42 | 12 | 2.6 | 4.3 | 0.00 | 0.00 | 0.00 | 66 | 1008.7 |
| 20260506043705 | 41 | 9 | 1.7 | 4.3 | 0.00 | 0.00 | 0.00 | 67 | 1008.7 |
| 20260506042705 | 40 | 4 | 2.6 | 4.3 | 0.00 | 0.00 | 0.00 | 70 | 1008.7 |
| 20260506041205 | 39 | 7 | 2.6 | 2.6 | 0.00 | 0.00 | 0.00 | 72 | 1008.8 |
| 20260506040206 | 39 | 7 | 0.9 | 2.6 | 0.00 | 0.00 | 0.00 | 73 | 1008.8 |
| 20260506035206 | 39 | 7 | 1.7 | 2.6 | 0.00 | 0.00 | 0.00 | 73 | 1008.7 |
| 20260506034705 | 39 | 7 | 2.6 | 2.6 | 0.00 | 0.00 | 0.00 | 73 | 1008.7 |
| 20260506034205 | 39 | 7 | 2.6 | 4.3 | 0.00 | 0.00 | 0.00 | 72 | 1008.7 |
| 20260506033706 | 39 | 7 | 2.6 | 4.3 | 0.00 | 0.00 | 0.00 | 72 | 1008.7 |
| 20260506031705 | 39 | 5 | 4.3 | 5.2 | 0.00 | 0.00 | 0.00 | 73 | 1008.8 |
| 20260506030205 | 39 | 17 | 3.5 | 4.3 | 0.00 | 0.00 | 0.00 | 75 | 1009.0 |
| 20260506025705 | 40 | 18 | 2.6 | 4.3 | 0.00 | 0.00 | 0.00 | 75 | 1009.0 |
| 20260506025205 | 40 | 12 | 3.5 | 4.3 | 0.00 | 0.00 | 0.00 | 75 | 1009.0 |
| 20260506023205 | 40 | 12 | 4.3 | 5.2 | 0.00 | 0.00 | 0.00 | 77 | 1009.1 |
| 20260506022704 | 40 | 15 | 4.3 | 4.3 | 0.00 | 0.00 | 0.00 | 78 | 1009.2 |
| 20260506022205 | 40 | 15 | 4.3 | 4.3 | 0.00 | 0.00 | 0.00 | 78 | 1009.2 |
| 20260506021705 | 40 | 17 | 4.3 | 5.2 | 0.00 | 0.00 | 0.00 | 79 | 1009.2 |
| 20260506021205 | 40 | 19 | 4.3 | 5.2 | 0.00 | 0.00 | 0.00 | 80 | 1009.3 |
| 20260506020205 | 40 | 19 | 4.3 | 4.3 | 0.00 | 0.00 | 0.00 | 80 | 1009.3 |
| 20260506015205 | 41 | 19 | 2.6 | 2.6 | 0.00 | 0.00 | 0.00 | 80 | 1009.4 |
| 20260506012205 | 42 | 20 | 0.0 | 0.0 | 0.00 | 0.00 | 0.00 | 79 | 1009.3 |
| 20260506011706 | 42 | 20 | 0.0 | 0.0 | 0.00 | 0.00 | 0.00 | 78 | 1009.3 |
| 20260506010207 | 43 | 20 | 0.9 | 1.7 | 0.00 | 0.00 | 0.00 | 77 | 1009.2 |
| 20260506005706 | 43 | 20 | 0.9 | 2.6 | 0.00 | 0.00 | 0.00 | 77 | 1009.1 |
| 20260506005205 | 43 | 20 | 2.6 | 5.2 | 0.00 | 0.00 | 0.00 | 77 | 1009.1 |
| 20260506004705 | 44 | 16 | 4.3 | 5.2 | 0.00 | 0.00 | 0.00 | 77 | 1009.1 |
| 20260506003205 | 44 | 14 | 7.8 | 8.7 | 0.00 | 0.00 | 0.00 | 78 | 1009.0 |
| 20260506001206 | 43 | 12 | 7.0 | 7.0 | 0.00 | 0.00 | 0.00 | 79 | 1009.0 |
| 20260506000705 | 43 | 10 | 6.1 | 6.1 | 0.00 | 0.00 | 0.00 | 79 | 1009.0 |
| 20260506000205 | 43 | 14 | 5.2 | 5.2 | 0.00 | 0.00 | 0.00 | 78 | 1008.9 |
| 20260505235705 | 43 | 19 | 0.0 | 0.0 | 0.00 | 0.00 | 0.00 | 78 | 1009.0 |
| 20260505234705 | 43 | 19 | 3.5 | 5.2 | 0.00 | 0.00 | 0.00 | 77 | 1009.0 |
| 20260505233205 | 44 | 25 | 3.5 | 6.1 | 0.00 | 0.00 | 0.00 | 76 | 1009.1 |
| 20260505232706 | 44 | 17 | 5.2 | 7.0 | 0.00 | 0.00 | 0.00 | 76 | 1009.0 |
| 20260505232205 | 45 | 16 | 5.2 | 7.0 | 0.00 | 0.00 | 0.00 | 76 | 1009.0 |
| 20260505231206 | 45 | 13 | 6.1 | 7.0 | 0.00 | 0.00 | 0.00 | 76 | 1009.0 |
| 20260505230708 | 45 | 9 | 6.1 | 7.0 | 0.00 | 0.00 | 0.00 | 76 | 1009.0 |
| 20260505230205 | 45 | 11 | 7.0 | 7.0 | 0.00 | 0.00 | 0.00 | 76 | 1009.0 |
| 20260505225706 | 45 | 8 | 5.2 | 7.0 | 0.00 | 0.00 | 0.00 | 76 | 1009.0 |
| 20260505225205 | 45 | 14 | 6.1 | 7.0 | 0.00 | 0.00 | 0.00 | 76 | 1009.0 |
| 20260505224705 | 45 | 15 | 7.0 | 7.0 | 0.00 | 0.00 | 0.00 | 76 | 1009.0 |
| 20260505222705 | 44 | 16 | 5.2 | 7.0 | 0.00 | 0.00 | 0.00 | 76 | 1009.1 |
| 20260505222205 | 44 | 14 | 4.3 | 6.1 | 0.00 | 0.00 | 0.00 | 75 | 1009.1 |
| 20260505220205 | 44 | 31 | 4.3 | 5.2 | 0.00 | 0.00 | 0.00 | 71 | 1009.2 |
| 20260505215206 | 45 | 27 | 4.3 | 5.2 | 0.00 | 0.00 | 0.00 | 70 | 1009.3 |
| 20260505214205 | 45 | 22 | 3.5 | 5.2 | 0.00 | 0.00 | 0.00 | 68 | 1009.4 |
| 20260505212704 | 45 | 11 | 7.0 | 7.0 | 0.00 | 0.00 | 0.00 | 67 | 1009.3 |
| 20260505211207 | 46 | 23 | 2.6 | 5.2 | 0.00 | 0.00 | 0.00 | 64 | 1009.4 |
| 20260505205205 | 46 | 14 | 7.0 | 7.8 | 0.00 | 0.00 | 0.00 | 61 | 1009.5 |
| 20260505204704 | 46 | 9 | 7.0 | 7.0 | 0.00 | 0.00 | 0.00 | 61 | 1009.5 |
| 20260505203706 | 45 | 13 | 7.8 | 11.3 | 0.00 | 0.00 | 0.00 | 60 | 1009.5 |
| 20260505202204 | 46 | 26 | 3.5 | 4.3 | 0.00 | 0.00 | 0.00 | 61 | 1009.5 |
| 20260505201704 | 46 | 26 | 2.6 | 5.2 | 0.00 | 0.00 | 0.00 | 60 | 1009.4 |
| 20260505200204 | 47 | 14 | 7.8 | 8.7 | 0.00 | 0.00 | 0.00 | 60 | 1009.5 |
| 20260505193205 | 48 | 12 | 5.2 | 6.1 | 0.00 | 0.00 | 0.00 | 61 | 1009.4 |
| 20260505192204 | 48 | 13 | 4.3 | 5.2 | 0.00 | 0.00 | 0.00 | 61 | 1009.3 |
| 20260505190206 | 50 | 22 | 3.5 | 4.3 | 0.00 | 0.00 | 0.00 | 58 | 1009.1 |
| 20260505185705 | 50 | 23 | 3.5 | 4.3 | 0.00 | 0.00 | 0.00 | 57 | 1009.1 |
| 20260505185205 | 50 | 23 | 2.6 | 2.6 | 0.00 | 0.00 | 0.00 | 56 | 1009.1 |
| 20260505184704 | 51 | 23 | 2.6 | 4.3 | 0.00 | 0.00 | 0.00 | 54 | 1009.1 |
| 20260505184204 | 51 | 21 | 4.3 | 4.3 | 0.00 | 0.00 | 0.00 | 55 | 1009.1 |
| 20260505183204 | 51 | 6 | 2.6 | 4.3 | 0.00 | 0.00 | 0.00 | 57 | 1009.2 |
| 20260505182704 | 51 | 6 | 3.5 | 5.2 | 0.00 | 0.00 | 0.00 | 57 | 1009.2 |
| 20260505182204 | 51 | 359 | 4.3 | 5.2 | 0.00 | 0.00 | 0.00 | 56 | 1009.2 |
| 20260505180704 | 52 | 0 | 5.2 | 6.1 | 0.00 | 0.00 | 0.00 | 54 | 1009.1 |
| 20260505180206 | 52 | 356 | 7.0 | 7.0 | 0.00 | 0.00 | 0.00 | 54 | 1009.1 |
| 20260505175205 | 52 | 352 | 6.1 | 7.0 | 0.00 | 0.00 | 0.00 | 52 | 1009.1 |
| 20260505174704 | 53 | 1 | 7.8 | 7.8 | 0.00 | 0.00 | 0.00 | 53 | 1009.1 |
| 20260505173706 | 53 | 352 | 6.1 | 11.3 | 0.00 | 0.00 | 0.00 | 54 | 1009.1 |
| 20260505173204 | 53 | 345 | 7.0 | 12.2 | 0.00 | 0.00 | 0.00 | 53 | 1009.2 |
| 20260505171706 | 53 | 339 | 4.3 | 11.3 | 0.00 | 0.00 | 0.00 | 51 | 1009.2 |
| 20260505171205 | 53 | 332 | 6.1 | 8.7 | 0.00 | 0.00 | 0.00 | 50 | 1009.2 |
| 20260505170704 | 53 | 0 | 5.2 | 11.3 | 0.00 | 0.00 | 0.00 | 49 | 1009.2 |
| 20260505170204 | 53 | 346 | 7.0 | 12.2 | 0.00 | 0.00 | 0.00 | 50 | 1009.2 |
| 20260505163205 | 54 | 0 | 7.8 | 13.0 | 0.00 | 0.00 | 0.00 | 50 | 1009.2 |
| 20260505153205 | 55 | 331 | 9.6 | 15.6 | 0.00 | 0.00 | 0.00 | 46 | 1009.2 |
| 20260505152204 | 55 | 359 | 11.3 | 15.6 | 0.00 | 0.00 | 0.00 | 44 | 1009.3 |
| 20260505140205 | 56 | 337 | 8.7 | 13.0 | 0.00 | 0.00 | 0.00 | 53 | 1009.4 |
| 20260505124704 | 56 | 353 | 8.7 | 13.9 | 0.00 | 0.00 | 0.00 | 57 | 1009.4 |
| 20260505122205 | 55 | 325 | 8.7 | 13.9 | 0.00 | 0.00 | 0.00 | 57 | 1009.5 |
| 20260505121704 | 56 | 340 | 13.0 | 14.8 | 0.00 | 0.00 | 0.00 | 58 | 1009.5 |
| 20260505115205 | 55 | 339 | 10.4 | 13.0 | 0.00 | 0.00 | 0.00 | 62 | 1009.4 |
| 20260505113705 | 56 | 338 | 6.1 | 11.3 | 0.00 | 0.00 | 0.00 | 64 | 1009.4 |
| 20260505112205 | 55 | 327 | 7.8 | 12.2 | 0.00 | 0.00 | 0.00 | 65 | 1009.5 |
| 20260505111206 | 55 | 336 | 7.8 | 12.2 | 0.00 | 0.00 | 0.00 | 65 | 1009.5 |
| 20260505102205 | 54 | 355 | 8.7 | 13.0 | 0.00 | 0.00 | 0.00 | 65 | 1009.7 |
| 20260505094205 | 55 | 3 | 7.0 | 13.0 | 0.00 | 0.00 | 0.00 | 65 | 1009.7 |
| 20260505093206 | 55 | 309 | 10.4 | 13.9 | 0.00 | 0.00 | 0.00 | 64 | 1009.7 |
| 20260505092704 | 55 | 340 | 8.7 | 14.8 | 0.00 | 0.00 | 0.00 | 65 | 1009.8 |
| 20260505090704 | 55 | 313 | 8.7 | 13.9 | 0.00 | 0.00 | 0.00 | 65 | 1009.7 |
| 20260505084706 | 53 | 338 | 7.8 | 12.2 | 0.00 | 0.00 | 0.00 | 68 | 1009.8 |
| 20260505084204 | 54 | 319 | 9.6 | 14.8 | 0.00 | 0.00 | 0.00 | 66 | 1009.8 |
| 20260505083205 | 54 | 333 | 6.1 | 12.2 | 0.00 | 0.00 | 0.00 | 71 | 1009.8 |
| 20260505082705 | 53 | 330 | 10.4 | 13.0 | 0.00 | 0.00 | 0.00 | 72 | 1009.8 |